RH
99 98 100 100 99 99 89 59 38 26 46 79 83 62 66 63 85 83 32 66 47 38 25 24 28 25 23 22 22 20 17 14 13 12 9 6 6 7 8 13 17 19 18 19 18 16 17 20 20 18 18 18 20 22
100 100 100 96 96 87 45 33 37 42 46 93 100 94 79 89 85 35 36 55 40 59 28 27 29 27 24 23 22 20 17 14 12 11 10 8 7 7 8 7 7 7 8 7 9 11 14 13 12 14 20 24 27 30
100 85 73 42 39 42 39 61 97 98 100 100 98 98 98 80 37 34 35 54 65 91 44 28 26 24 23 22 20 18 15 13 12 11 10 9 8 8 7 6 7 8 9 8 8 16 12 8 8 12 17 27 31 29
94 83 58 40 37 65 92 99 100 100 99 99 95 97 62 39 35 51 67 99 99 99 79 28 29 24 22 20 18 16 14 12 11 11 10 10 9 8 7 7 7 8 8 8 7 9 7 12 16 19 23 24 24 25
63 42 41 45 55 80 88 100 100 96 92 95 99 85 53 43 48 62 81 90 99 100 76 65 29 23 21 18 16 13 13 12 12 12 12 12 11 10 9 8 9 12 10 8 8 11 12 17 22 23 24 26 34 45
72 77 87 100 89 95 99 100 96 92 97 99 73 38 47 55 59 91 100 88 84 84 68 70 66 48 67 34 25 27 21 13 8 8 7 7 8 8 8 8 13 13 13 13 15 18 21 22 26 37 49 52 47 39
94 99 100 100 90 89 90 100 100 100 100 98 87 78 64 58 68 99 100 100 100 91 70 59 56 56 62 77 46 20 12 9 8 7 6 7 7 7 8 11 17 19 20 24 27 29 36 45 48 44 38 34 33 45
71 89 100 89 100 100 85 94 100 97 100 99 88 68 66 53 61 82 86 86 84 82 68 55 44 37 30 29 20 15 11 9 8 9 8 9 9 11 11 22 30 34 38 43 44 44 42 39 34 34 54 74 88 96
100 100 100 99 98 100 90 69 84 90 99 100 100 99 97 84 83 70 53 46 40 38 33 29 26 27 22 21 19 17 15 14 12 12 15 14 18 25 35 39 40 40 43 45 44 37 31 37 60 82 95 99 100 100
92 100 97 100 100 100 100 95 97 80 85 93 96 96 95 94 94 89 83 68 57 45 40 42 42 35 35 34 34 29 28 27 22 29 32 31 35 53 56 54 50 42 34 32 37 57 79 90 98 100 100 100 100 100
100 100 94 96 100 100 94 100 97 92 94 96 94 92 87 84 69 58 50 47 47 48 59 70 83 89 89 78 80 70 61 61 52 56 64 57 56 53 46 41 38 40 54 75 93 95 94 99 100 100 100 100 98 92
100 100 100 96 100 96 100 100 99 99 95 97 96 100 98 100 100 99 99 100 100 100 100 100 99 95 93 94 87 77 73 67 58 56 51 43 43 38 39 55 76 93 100 100 99 98 99 99 99 99 97 91 80 72
100 100 100 100 100 100 100 100 99 97 100 100 100 100 100 99 99 100 99 95 99 100 100 100 94 82 67 55 45 42 35 30 30 26 23 24 32 57 85 98 99 100 100 100 100 100 98 94 86 76 74 71 73 91
100 100 100 100 100 100 100 100 100 100 100 96 100 100 93 95 93 97 99 99 96 96 93 91 78 49 44 43 39 33 30 29 27 27 31 53 79 90 90 96 95 91 89 87 87 84 80 77 76 77 82 94 100 100
100 99 99 100 100 100 100 99 100 100 100 100 98 99 100 100 98 96 96 94 88 93 100 93 70 73 78 77 83 82 70 58 56 69 73 82 88 93 94 92 88 85 82 82 82 82 77 74 80 87 91 97 100 98
99 100 100 99 98 94 95 94 95 96 90 92 97 100 93 95 91 85 84 81 79 78 86 89 96 100 100 99 97 100 100 97 96 96 94 93 92 92 91 88 89 90 88 82 75 69 76 89 96 100 100 96 66 41
100 100 100 94 100 100 100 100 100 100 91 78 77 83 91 94 89 85 84 85 87 90 99 100 100 100 97 96 96 95 95 92 88 88 90 92 87 90 90 87 81 69 50 39 57 86 97 100 100 93 61 47 29 23
100 100 100 100 100 100 100 100 100 100 100 99 100 100 100 100 94 90 97 97 92 87 85 87 87 88 89 90 94 96 97 98 100 99 94 78 64 47 28 19 12 19 59 100 100 100 98 82 61 59 48 34 24 25
100 100 100 100 100 100 100 100 100 100 100 100 97 97 94 90 87 94 100 100 100 100 100 100 100 100 100 100 99 98 89 76 53 27 14 8 6 7 8 15 28 39 52 65 77 79 75 68 56 38 25 23 25 30
98 98 100 100 100 100 100 100 100 100 100 100 100 100 100 100 100 100 100 100 100 100 100 100 96 92 83 74 59 41 25 13 8 7 7 8 8 10 13 19 32 60 82 87 79 63 44 34 30 31 35 34 35 34
33 36 32 35 55 96 88 100 100 100 100 100 98 99 100 100 100 100 97 78 61 34 26 20 16 14 10 9 8 8 8 8 8 8 8 10 13 25 45 71 94 100 97 75 52 48 50 60 75 75 60 44 47 54
15 13 11 10 10 10 17 14 16 18 26 17 12 12 14 14 12 12 11 9 9 9 9 9 9 9 9 8 8 8 8 8 8 9 11 16 34 52 77 100 100 99 83 80 86 94 95 87 75 65 64 65 57 44
16 16 15 15 14 14 14 13 12 12 11 11 11 11 11 11 11 10 10 10 10 10 10 9 9 9 9 9 8 8 9 10 12 16 21 38 72 93 100 100 100 100 100 98 95 90 88 89 90 80 61 47 38 26
19 18 18 17 17 16 16 15 15 14 14 13 13 12 12 12 12 12 12 12 12 12 11 11 10 10 10 10 10 12 15 20 34 62 81 92 100 100 100 100 100 100 100 100 99 94 84 74 58 48 39 28 25 27
19 18 17 17 17 16 16 15 15 15 15 15 14 15 14 14 14 13 13 12 12 12 11 11 11 11 13 17 24 31 49 71 93 100 100 100 100 100 100 100 97 91 85 84 84 72 57 46 36 30 28 29 24 24
15 14 14 13 13 13 13 13 13 13 13 13 13 13 13 13 12 12 12 12 12 12 13 16 21 32 44 56 65 82 94 99 100 100 100 100 99 95 91 89 87 83 74 62 51 43 35 31 31 28 23 25 31 30
14 13 13 13 12 12 12 11 11 11 10 10 9 9 9 9 10 11 12 15 20 32 51 68 79 82 85 86 83 82 85 90 95 97 95 92 86 83 82 80 70 58 49 39 33 32 31 24 21 26 33 30 23 20
14 12 12 11 10 9 9 9 9 9 10 10 10 12 16 23 39 41 50 71 91 90 87 87 91 94 94 95 94 93 96 98 98 98 98 98 92 79 65 51 41 35 33 32 28 20 19 27 34 30 22 20 22 29
44 47 50 47 48 65 73 68 69 77 82 73 59 75 99 97 99 100 100 100 100 97 100 100 100 95 85 85 97 100 100 100 100 99 86 61 42 37 34 32 32 32 26 20 24 32 33 26 19 18 22 27 33 34
66 56 64 79 73 68 72 79 87 100 100 97 100 100 100 100 100 100 98 90 93 97 100 100 100 99 100 100 100 99 89 68 44 38 35 35 35 36 37 33 24 25 32 35 28 20 17 18 22 27 32 35 35 31
80 80 88 91 90 88 95 94 96 99 100 98 100 100 99 93 91 96 98 96 99 100 100 100 100 92 72 49 39 37 37 38 40 41 42 41 36 28 26 31 36 34 24 18 18 21 24 29 33 36 37 34 30 28
88 95 96 100 100 99 100 100 100 100 100 100 100 100 100 100 100 100 100 94 84 65 50 43 40 39 39 39 39 39 40 41 42 39 32 30 34 39 38 31 22 18 18 22 25 27 29 34 34 32 28 27 28 28
81 79 74 72 70 67 66 64 61 61 60 59 59 56 53 51 48 45 42 40 40 41 43 44 45 43 42 40 40 42 43 39 36 38 41 41 36 30 22 18 19 23 25 26 26 30 32 30 27 26 26 27 28 28
Wind_Speed
51 60 64 70 65 61 59 56 52 47 42 40 42 45 40 38 37 36 41 44 43 44 50 51 47 43 38 35 32 29 27 24 23 22 20 18 17 16 15 17 21 24 26 26 28 31 35 34 35 38 40 43 44 45
60 64 61 57 55 55 53 48 44 42 38 35 42 42 37 38 35 36 41 40 41 39 48 49 46 42 38 36 34 30 29 28 26 24 23 22 21 19 20 20 21 24 26 28 29 31 35 38 40 42 42 44 45 46
52 54 54 51 47 48 45 41 40 35 38 38 38 38 36 34 35 36 38 38 42 34 45 47 45 42 38 36 34 31 30 28 26 27 27 27 27 26 27 27 28 29 29 31 34 34 38 42 43 43 44 44 45 46
46 47 48 46 43 41 38 34 33 40 37 34 33 33 31 33 35 37 41 32 35 40 38 46 43 40 37 36 34 31 30 30 30 31 31 31 32 31 31 34 35 33 33 37 39 39 42 41 42 43 43 44 44 45
43 43 42 41 38 36 36 40 38 35 33 31 31 32 31 34 37 37 39 39 36 35 39 38 41 39 37 36 34 32 32 33 33 32 32 34 35 36 37 38 35 35 37 41 42 41 41 40 39 40 41 43 45 47
39 39 36 35 31 30 36 38 31 27 29 30 30 30 35 38 40 46 32 46 40 38 39 37 36 36 30 35 34 33 33 34 34 35 36 36 36 39 42 41 34 37 39 40 39 40 40 41 41 42 44 46 48 48
38 39 34 27 33 31 31 37 35 29 28 29 29 30 31 34 38 35 31 31 34 34 34 35 35 34 33 30 33 35 36 36 37 37 38 38 39 41 42 40 36 35 37 38 38 39 40 42 44 45 46 47 47 47
31 30 25 28 38 39 29 29 30 29 29 29 26 30 31 32 32 28 27 28 27 27 30 32 33 33 33 32 33 35 35 36 37 37 38 38 40 40 41 35 34 35 36 38 39 41 43 44 45 45 46 46 47 47
26 26 34 35 30 34 24 29 25 22 33 32 28 31 28 30 32 30 29 30 31 32 31 30 28 28 32 31 31 32 33 35 37 37 37 38 38 37 33 33 34 36 38 40 42 43 43 45 45 46 47 48 50 52
23 20 28 34 38 28 38 32 27 20 18 27 34 25 24 26 27 28 28 28 29 29 28 25 25 24 24 25 26 28 30 32 34 33 34 35 35 33 33 35 36 39 40 41 42 44 45 46 47 48 49 50 53 55
22 22 29 37 39 36 39 33 26 21 21 22 26 27 25 25 24 24 23 23 24 23 20 19 18 19 20 22 25 30 31 33 36 36 36 37 34 33 34 36 38 39 41 42 43 44 45 46 48 50 53 55 56 58
19 22 36 43 34 35 34 36 30 24 26 24 18 20 20 21 21 22 22 21 20 19 16 16 18 20 22 25 28 30 32 35 37 37 36 36 35 35 37 38 39 39 40 42 44 46 48 51 53 54 55 58 60 61
18 19 31 42 33 32 35 34 25 25 26 29 23 23 22 22 26 26 23 21 20 19 20 21 23 25 27 30 32 34 37 38 38 41 41 37 34 35 37 38 39 41 44 46 49 51 52 53 56 59 59 60 61 61
16 20 21 24 32 35 31 33 35 35 34 31 26 28 30 31 29 24 24 25 26 26 27 29 32 32 31 32 34 35 38 39 40 38 35 34 37 40 42 42 44 47 49 51 53 55 58 60 60 58 58 58 58 56
23 20 20 21 23 26 28 32 33 32 31 35 33 32 30 27 28 29 32 33 35 37 39 34 32 33 34 36 36 36 37 39 37 37 39 40 42 44 46 49 51 53 55 56 57 59 58 58 57 57 57 56 55 53
28 25 25 24 23 23 20 21 26 29 39 37 37 39 37 35 35 36 36 35 35 35 36 38 36 32 29 30 30 31 32 35 39 41 43 45 47 49 51 53 55 56 57 57 58 57 56 56 55 54 53 50 49 51
32 33 30 26 23 24 23 22 20 21 27 34 35 36 32 28 27 25 25 24 23 26 27 29 30 31 34 35 35 37 39 40 43 44 46 48 51 53 56 57 58 58 56 54 55 54 52 52 51 48 49 51 49 51
34 35 34 30 28 31 27 26 25 25 28 32 29 29 29 28 27 26 26 26 27 28 30 34 36 37 38 40 41 42 44 45 46 46 47 48 49 50 50 50 50 51 51 52 52 54 53 50 48 51 53 53 53 56
37 42 40 37 34 32 32 32 33 34 33 33 31 31 32 33 33 34 35 36 36 37 37 39 41 41 42 43 43 44 43 41 39 38 39 40 42 44 45 45 46 48 49 49 47 46 48 51 52 53 55 57 60 64
21 23 33 39 42 43 42 43 41 38 41 41 39 39 39 40 41 42 43 44 44 42 41 39 38 36 35 34 34 33 33 35 36 39 42 44 45 46 47 47 45 44 43 44 46 48 49 52 55 58 60 62 66 70
13 14 15 18 21 26 28 29 34 34 34 34 36 37 37 39 38 37 36 34 31 27 27 27 27 29 30 31 33 35 38 40 43 45 46 46 45 44 43 42 41 42 44 45 47 49 52 54 58 62 65 68 72 78
11 12 12 13 15 16 18 19 19 19 21 22 22 24 24 24 25 26 26 25 26 27 28 30 31 33 35 37 39 42 44 46 48 48 47 46 44 43 40 40 41 43 45 47 50 54 58 61 63 66 70 74 78 82
12 12 13 13 14 15 16 17 19 20 21 22 23 23 24 25 26 26 26 27 29 31 33 35 37 39 42 44 46 47 47 48 47 46 45 41 39 38 40 42 43 45 48 52 56 58 61 64 68 71 75 80 83 85
16 17 17 18 18 19 19 20 21 22 23 24 24 26 27 28 29 31 32 34 36 38 40 41 43 45 46 47 46 46 45 44 41 39 38 38 38 39 41 44 47 50 53 56 59 63 67 69 73 78 81 83 82 78
25 25 26 27 28 28 29 30 31 32 32 33 34 35 36 37 38 39 39 41 42 43 44 45 46 46 45 44 41 38 35 34 34 36 37 39 40 42 45 48 51 54 58 62 64 68 72 76 79 79 79 77 74 70
31 31 32 33 34 35 35 37 37 39 39 40 41 42 43 44 45 45 45 45 45 44 43 42 40 38 35 33 32 31 32 33 35 37 40 43 45 48 52 55 57 59 62 66 70 74 76 75 74 74 71 66 64 63
36 37 39 40 41 42 44 45 47 48 49 49 50 50 50 50 50 47 44 41 38 35 33 31 30 31 31 33 34 34 35 38 41 43 45 47 50 53 56 59 62 66 70 72 72 72 71 71 67 63 61 61 59 56
36 39 40 41 43 45 43 43 44 45 45 45 45 42 41 39 33 29 27 27 27 26 27 28 30 31 32 33 35 36 39 43 45 48 50 53 56 59 62 65 68 69 69 69 70 68 64 60 58 58 57 54 51 47
8 8 11 11 10 8 6 6 5 7 11 16 19 21 22 20 20 22 25 25 27 26 26 28 30 33 36 39 41 44 46 48 51 54 56 59 61 63 64 65 66 67 67 64 61 59 58 57 56 53 50 47 43 43
9 7 9 9 8 9 9 9 10 12 9 9 11 21 18 16 15 17 22 26 28 28 31 34 37 39 42 45 47 49 52 54 56 56 58 59 60 62 64 65 63 60 59 58 58 58 56 53 50 46 43 42 42 42
7 7 8 9 10 10 10 9 9 8 8 9 11 12 15 21 24 25 27 29 31 34 36 39 41 43 44 45 46 47 49 51 53 56 59 61 63 61 59 58 57 57 57 56 54 51 47 44 43 42 42 42 42 43
11 12 13 13 13 13 13 13 13 14 15 17 18 20 21 23 26 29 32 34 36 38 40 40 40 40 40 43 46 50 53 56 59 60 59 57 56 55 55 55 55 54 52 48 45 43 42 41 41 40 41 42 41 39
19 20 21 21 22 23 23 24 24 24 24 25 26 28 30 31 33 35 37 38 38 37 36 37 39 42 46 50 54 57 59 58 56 54 54 54 54 55 54 52 50 47 45 43 43 42 40 41 42 41 39 37 37 37
Wind_Direction
136 137 139 146 146 144 150 155 159 163 167 173 182 177 181 186 189 192 197 196 198 200 200 200 203 205 204 208 215 219 226 234 244 252 262 274 280 279 275 267 264 268 272 275 278 282 284 288 287 285 287 287 288 290
134 134 133 137 143 148 151 156 158 165 176 181 178 175 181 187 190 196 193 195 198 201 201 202 206 209 211 214 219 223 229 236 245 255 262 265 273 280 281 277 274 272 275 278 280 282 284 285 286 288 289 290 291 291
131 134 136 140 144 147 152 156 160 164 164 166 173 178 180 186 193 187 188 193 193 197 204 205 207 211 214 218 223 230 235 242 251 256 260 266 272 275 279 280 279 280 284 284 284 282 285 288 290 291 292 292 293 295
136 138 142 147 148 147 150 153 160 163 164 170 173 172 180 186 183 184 189 175 183 198 203 207 209 213 219 224 229 233 240 245 250 256 262 267 271 274 279 282 284 288 286 286 287 286 288 289 290 291 291 292 293 293
139 141 145 147 145 147 149 153 158 161 163 168 172 167 178 177 178 181 190 199 198 201 200 205 212 217 223 228 233 237 242 248 253 258 262 267 273 278 280 282 287 287 286 286 288 288 288 289 288 289 290 292 293 295
143 145 140 145 147 149 158 156 155 161 170 166 161 171 175 180 179 173 183 201 208 207 201 205 211 217 220 229 235 240 244 249 255 261 265 270 275 278 280 282 285 283 285 287 287 288 290 292 293 293 294 295 296 297
144 143 148 143 147 149 157 158 163 158 160 165 160 164 174 187 198 199 187 190 198 201 206 210 216 220 225 232 241 246 251 255 259 264 268 272 275 277 281 283 284 284 284 285 285 287 288 289 291 292 293 295 297 297
144 151 162 151 158 165 155 159 162 166 164 171 167 167 174 187 200 206 210 213 217 222 221 221 225 229 234 238 243 249 254 260 264 267 270 273 275 277 280 283 283 284 284 284 286 287 288 290 292 294 295 295 296 296
152 159 173 172 163 170 171 160 168 168 164 162 174 159 175 187 194 200 204 210 216 222 226 229 231 234 238 243 248 253 257 260 264 267 269 272 275 277 281 282 283 283 283 285 286 288 291 293 294 294 294 295 295 297
166 172 182 180 176 170 177 198 179 186 183 182 193 194 193 195 199 203 205 209 213 219 223 226 231 234 241 246 250 255 259 261 265 265 269 272 276 280 283 283 284 285 287 289 291 292 292 292 292 293 294 295 297 297
178 182 184 180 178 177 174 187 186 196 201 196 195 198 199 202 204 208 211 215 220 221 221 223 231 238 244 248 253 256 260 263 266 268 272 276 280 283 284 285 285 286 287 287 288 289 291 291 292 293 296 297 297 296
163 180 180 171 171 181 189 189 191 193 199 191 200 204 205 206 210 215 219 223 229 234 239 242 245 248 250 256 259 263 267 270 274 278 279 280 283 283 282 283 283 282 283 286 288 290 291 293 296 297 296 295 296 297
167 173 187 189 182 188 188 195 194 194 200 213 217 217 222 224 228 231 235 240 247 250 249 253 262 267 268 267 268 269 271 275 278 278 281 286 286 284 284 285 285 286 287 289 292 293 294 294 296 297 297 297 298 299
193 170 178 190 202 196 189 191 197 205 206 203 208 220 220 222 228 239 246 249 256 259 261 265 267 267 267 267 269 272 272 274 277 281 286 285 282 281 282 284 287 290 292 293 293 295 296 298 299 299 300 300 301 301
188 185 182 186 193 199 210 215 223 217 215 205 205 214 220 237 247 253 256 259 263 266 267 264 263 268 270 271 271 272 274 276 280 282 279 280 281 283 285 288 290 292 294 295 296 296 297 299 300 300 300 301 300 302
189 192 201 196 193 197 198 207 214 221 224 232 234 238 248 256 255 258 258 258 260 259 257 259 262 259 263 266 272 274 277 278 280 281 283 286 287 289 290 291 293 294 295 296 299 299 298 299 301 301 301 302 305 308
198 198 194 194 209 205 210 215 216 221 222 229 237 242 241 239 243 250 254 253 251 250 247 249 257 265 268 271 275 280 282 282 284 285 286 287 288 289 291 292 294 296 298 298 297 298 299 298 299 299 303 305 306 309
202 206 204 202 207 204 205 199 201 207 219 223 228 236 242 246 253 255 256 260 262 260 258 262 265 271 276 279 281 282 282 283 284 285 287 289 291 292 293 294 295 295 294 293 292 293 296 298 299 302 302 304 305 308
199 207 211 215 222 219 215 216 216 225 228 236 247 255 260 261 263 265 267 270 272 271 271 271 271 271 272 275 278 280 284 286 287 287 288 289 291 290 290 289 288 287 288 289 292 295 297 298 298 299 300 302 304 306
212 208 207 208 210 211 216 219 223 224 227 234 241 245 249 252 256 258 262 264 266 268 270 273 276 280 282 283 283 283 285 287 289 291 293 293 291 290 289 288 288 288 290 292 293 293 294 296 298 300 302 303 305 307
201 209 214 223 235 233 232 235 234 237 239 242 246 249 252 254 258 263 267 268 269 270 270 271 272 273 275 278 282 286 289 292 293 292 291 289 288 287 288 288 288 289 290 291 292 295 297 298 300 301 303 305 307 309
191 197 203 209 214 216 221 227 230 234 236 238 239 242 244 247 250 254 258 261 264 268 270 272 275 278 282 285 289 290 291 291 290 288 287 286 287 288 288 289 290 291 292 294 297 298 300 301 302 304 306 307 307 308
210 214 218 223 225 227 229 230 233 235 238 241 244 246 250 253 256 260 264 267 270 273 275 278 281 284 286 289 291 291 290 288 287 287 288 288 288 290 292 292 293 294 296 297 299 301 302 303 304 305 306 307 308 311
245 247 249 249 248 248 247 250 251 252 253 256 258 260 262 264 267 269 272 275 277 279 280 282 283 285 286 287 286 285 285 285 286 286 287 288 288 290 291 292 294 296 298 299 300 301 303 304 304 305 307 309 311 312
258 258 259 259 259 261 262 263 263 263 264 264 265 266 268 270 271 273 275 277 279 280 280 281 283 284 285 285 285 286 287 288 288 288 288 289 290 291 293 294 295 296 297 299 301 303 304 305 307 309 310 310 310 311
265 266 267 267 268 268 268 269 269 270 270 270 271 272 273 274 274 275 275 276 277 278 279 280 281 281 282 283 284 284 285 287 289 289 290 290 291 293 294 295 296 298 299 301 302 304 306 307 307 308 309 310 311 311
270 270 271 271 272 273 273 273 272 272 272 271 271 271 271 271 270 271 270 269 270 270 270 272 275 277 278 279 281 281 283 287 290 292 293 294 294 295 296 297 298 299 301 303 305 305 305 306 308 308 309 310 311 312
281 281 279 282 279 278 275 273 270 267 266 265 262 259 259 260 261 261 259 257 258 263 269 272 274 276 278 279 282 285 288 291 292 292 293 293 294 295 297 298 300 301 302 302 304 305 307 307 308 309 310 311 312 313
326 333 328 334 331 323 302 299 293 316 297 270 257 241 234 241 248 252 252 256 261 267 273 276 278 281 284 286 288 290 291 292 292 293 294 295 297 299 300 300 301 302 304 305 306 307 307 308 309 310 311 312 313 314
292 304 308 315 303 299 297 299 296 309 302 288 269 220 234 246 253 259 261 264 266 270 276 280 282 284 286 288 289 289 290 292 294 296 298 299 300 300 300 302 303 304 305 306 307 307 308 309 310 311 312 313 314 315
289 295 309 309 309 306 296 278 284 289 272 272 275 267 255 254 260 265 269 272 274 276 278 281 284 286 288 291 294 296 297 298 299 300 300 300 301 301 302 302 303 304 305 306 307 308 308 310 311 312 313 314 315 316
288 287 286 288 287 285 286 288 287 287 285 283 281 277 274 273 273 274 275 279 282 285 286 288 289 291 292 295 298 300 301 301 301 301 301 301 301 301 302 303 304 304 304 306 306 308 309 310 310 311 311 312 313 315
283 284 284 286 286 286 286 286 285 284 283 282 282 283 282 283 285 285 285 286 286 287 288 289 291 293 296 300 302 302 302 302 301 301 301 301 301 302 303 303 303 304 304 305 306 306 307 307 309 309 309 310 311 312